Skip Page Navigation
NASA JPL Caltech
NASA Logo - Jet Propulsion Laboratory + View the NASA Portal
+ Center for Near-Earth Object Studies
JPL Home Earth Solar System Stars & Galaxies Technology
JPL Solar System Dynamics
BODIES ORBITS EPHEMERIDES TOOLS PHYSICAL DATA DISCOVERY FAQ SITE MAP
IMPORTANT: The SSD Announcement email list is now available. Major changes are coming in the near future, including possible hostname and/or URL changes. To be notified of such changes, subscribe to this email list.

Please visit this page for more details.


JPL Small-Body Database Browser
Search: [ help ]  
400 Ducrosa (A895 EC)
Classification: Main-belt Asteroid          SPK-ID: 2000400
Ephemeris | Orbit Diagram | Orbital Elements | Mission Design | Physical Parameters | Discovery Circumstances | Close-Approach Data ]

[ hide orbit diagram ]

For accurate long-term ephemerides, please instead use our Horizons system.This orbit viewer was implemented using two-body methods, and hence should not be used for determining accurate long-term trajectories (over several years or decades) or planetary encounter circumstances.


[ revert to old Java-based viewer ]

Orbital Elements at Epoch 2458600.5 (2019-Apr-27.0) TDB
Reference: JPL 38 (heliocentric ecliptic J2000)
 Element Value Uncertainty (1-sigma)   Units 
e .1166198755446391 4.7542e-08  
a 3.125315641636456 1.5481e-08 au
q 2.760841720471099 1.4761e-07 au
i 10.52765246304271 5.6759e-06 deg
node 327.0374050003535 2.3305e-05 deg
peri 237.6102708983592 3.074e-05 deg
M 113.3309274644427 2.1122e-05 deg
tp 2457965.190722711896
(2017-Jul-30.69072271)
0.00011734 TDB
period 2018.084074141853
5.53
1.4995e-05
4.105e-08
d
yr
n .1783870179705384 1.3254e-09 deg/d
Q 3.489789562801813 1.7286e-08 au
  Orbit Determination Parameters
   # obs. used (total)      2128  
   data-arc span      45554 days (124.72 yr)  
   first obs. used      1895-03-18  
   last obs. used      2019-12-07  
   planetary ephem.      DE431  
   SB-pert. ephem.      SB431-N16  
   condition code      0  
   norm. resid. RMS      .45112  
   source      ORB  
   producer      Otto Matic  
   solution date      2019-Dec-13 20:42:13  

Additional Information
 Earth MOID = 1.77651 au 
 Jupiter MOID = 1.59534 au 
 T_jup = 3.178 
[ show covariance matrix ]

Ephemeris | Orbit Diagram | Orbital Elements | Mission Design | Physical Parameters | Discovery Circumstances | Close-Approach Data ]

Physical Parameter Table
Parameter Symbol Value Units Sigma Reference Notes
absolute magnitude H 10.5   n/a MPO265957  
diameter diameter 36.001 km 0.390 urn:nasa:pds:neowise_diameters_albedos::2.0[mainbelt] (http://adsabs.harvard.edu/abs/2014ApJ...791..121M)  
rotation period rot_per 6.87 h n/a LCDB (Rev. 2019-January); Warner et al., 2009 Published Reference List:
[Warner, B.D. (2005) Minor Planet Bull. 32, 54-58.]
[Hanus, J.; Durech, J.; Broz, M.; Warner, B.D.; et al. (2011) Astron. Astrophys. 530, A134.]
geometric albedo albedo 0.112   0.022 urn:nasa:pds:neowise_diameters_albedos::2.0[mainbelt] (http://adsabs.harvard.edu/abs/2012ApJ...759L...8M)  

400 Ducrosa (A895 EC)          Discovered 1895-Mar-15 by Charlois, A. at Nice
Reference: DISCOVERY.DBLast Updated: 2003-08-29

[ show close-approach data ]
Alternate Designations
 A895 EC = 1939 BH = 1950 BC1 = 1950 BQ = 1950 CB 
Ephemeris | Orbit Diagram | Orbital Elements | Mission Design | Physical Parameters | Discovery Circumstances | Close-Approach Data ]
ABOUT SSD CREDITS/AWARDS PRIVACY/COPYRIGHT GLOSSARY LINKS
FirstGov 2020-Jan-18 00:48 UT
(server date/time)  
NASA Home Page
Site Manager:   Ryan S. Park
Webmaster  Alan B. Chamberlin